Regional Weather Roundup
Issued by NWS

Home | Current Version | Previous Version | Graphics & Text | Print | Product List | Glossary On
Versions: 1 2 3 4 5 6 7 8 9 10 11 12 13 14 15 16 17 18 19 20 21 22 23 24 25 26 27 28 29 30 31 32 33 34 35 36 37 38 39 40 41 42 43 44 45 46 47 48 49 50
000
ASUS43 KDTX 260901
RWRMI
MICHIGAN HOURLY REGIONAL WEATHER ROUNDUP
NATIONAL WEATHER SERVICE DETROIT/PONTIAC MI
400 AM EST SUN FEB 26 2017

NOTE: "FAIR" INDICATES FEW OR NO CLOUDS BELOW 12,000 FEET WITH NO
SIGNIFICANT WEATHER AND/OR OBSTRUCTION TO VISIBILITY.

MIZ047>049-052>055-059>063-066>070-074>076-081>083-261000-
SOUTHEAST LOWER MICHIGAN

CITY           SKY/WX    TMP DP  RH WIND       PRES   REMARKS
ADRIAN         FLURRIES  24  19  81 W10       30.05R WCI  14
ALMA           CLOUDY    23  18  78 SW6       30.00S WCI  16
ANN ARBOR      CLOUDY    24  18  77 SW7       30.02R WCI  16
BAD AXE        PTCLDY    24  16  69 W10       29.95R WCI  14
CARO           MOCLDY    24  16  73 W8        29.97R WCI  15
DETROIT CITY   FLURRIES  24  18  77 SW9       30.02R WCI  14
DETROIT        FLURRIES  25  17  72 W10       30.04R WCI  15
FLINT          CLOUDY    24  14  65 W7        30.00R WCI  16
GROSSE ILE     FLURRIES  25  17  70 W8        30.03R WCI  16
HILLSDALE      FLURRIES  23  19  86 SW3       30.01S
HOWELL         CLOUDY    24  15  70 W7        30.00S WCI  16

CITY           SKY/WX    TMP DP  RH WIND       PRES   REMARKS
JACKSON        CLOUDY    23  17  78 SW8       30.02R WCI  14
LAMBERTVILLE   FLURRIES  27  19  72 W9        30.06R WCI  18
LANSING        CLOUDY    22  16  78 SW7       30.02R WCI  13
LAPEER         CLOUDY    24  16  70 W6        29.98S WCI  17
MASON          CLOUDY    23  19  85 SW5       30.02R WCI  17
MONROE         CLOUDY    26  19  74 W9        30.04R WCI  16
MT. CLEMENS    FLURRIES  25  16  68 W10       29.99R WCI  15
PONTIAC        CLOUDY    23  14  68 W9        29.98R WCI  13
PORT HOPE        N/A     26  18  71 W14G23    29.92R WCI  14
PORT HURON     CLOUDY    25  14  63 W7G16     29.99R WCI  17
TRI CITIES     CLEAR     23  17  78 SW9       29.99R WCI  13
MIDLAND        FAIR      23  16  73 SW5       29.98R WCI  17
TROY           CLOUDY    26  16  66 W6        30.03R WCI  19
SAGINAW HB     CLEAR     27  16  63 SW7       29.99R WCI  19
$$
MIZ043>046-050>051-056>058-064>065-071>073-077>080-261000-
SOUTHWEST LOWER MICHIGAN

CITY           SKY/WX    TMP DP  RH WIND       PRES   REMARKS
BATTLE CREEK   CLOUDY    22  17  81 SW7       30.03R WCI  13
BENTON HARBOR  MOCLDY    26  15  63 SW5       30.04F WCI  20
BIG RAPIDS     PTCLDY    20  15  81 SW8       29.95R WCI  10
COLDWATER      CLOUDY    23  20  85 SW6       30.04R WCI  16
FREMONT        FAIR      15  13  89 S3        29.97F
HOLLAND        MOCLDY    25  17  72 SW8       30.02S WCI  16
GRAND RAPIDS   CLOUDY    23  15  71 SW7       30.00S WCI  15
IONIA          FAIR      21  15  77 SW8       30.00R WCI  12
KALAMAZOO      CLOUDY    24  15  68 SW5       30.03S WCI  18
LUDINGTON      PTCLDY    27  18  70 W5        29.94F WCI  21
MARSHALL       CLOUDY    23  19  84 SW6       30.03R WCI  15
MOUNT PLEASANT CLOUDY    23  17  77 SW6       29.97R WCI  15
MUSKEGON       MOCLDY    26  16  65 SW5       30.00S WCI  20
SOUTH HAVEN    PTCLDY    28  17  64 CALM      30.03F
$$
MIZ016>042-261000-
NORTHERN LOWER MICHIGAN

CITY           SKY/WX    TMP DP  RH WIND       PRES   REMARKS
ALPENA         CLEAR     22  15  75 SW7       29.88F WCI  13
BEAVER ISLAND  CLEAR     25  18  74 SW10G17   29.85S WCI  15
BELLAIRE       CLEAR     22  18  81 S5        29.91R WCI  16
CADILLAC       PTCLDY     8   5  88 SW5       29.89S WCI  -1
CHARLEVOIX     CLEAR     26  17  67 SW10      29.90S WCI  16
FRANKFORT      CLEAR     29  19  66 W9        29.91S WCI  20
GAYLORD        LGT SNOW  21  14  74 SW8       29.84F WCI  11
GRAYLING       CLEAR     19  14  81 SW5       29.89S WCI  12
HARBOR SPRINGS MOCLDY    27  16  63 W5        29.86S WCI  21
HOUGHTON LAKE  MOCLDY    19  13  77 SW10      29.91R WCI   7
MANISTEE       CLEAR     25  17  72 SW7       29.93F WCI  17
OSCODA         PTCLDY    18  12  75 SW6       29.92S WCI  10
PELLSTON       CLEAR      9   6  88 S3        29.85F
TRAVERSE CITY  CLEAR     21  14  74 SW5       29.90S WCI  15
$$
MIZ007>008-015-261000-
EASTERN UPPER MICHIGAN

CITY           SKY/WX    TMP DP  RH WIND       PRES   REMARKS
KINROSS        CLOUDY    18  13  80 SW5       29.80F WCI  11
MACKINAC ISLAN CLEAR     24  17  76 W13       29.82F WCI  12
NEWBERRY       CLEAR     14   9  81 SW9       29.80S WCI   2
S. S. MARIE    CLOUDY    21  15  78 SW8       29.80R WCI  11
MUNISING         N/A     20  10  65 SW10G18   29.79S WCI   9
$$
MIZ004>006-011>014-085-261000-
CENTRAL UPPER MICHIGAN

CITY           SKY/WX    TMP DP  RH WIND       PRES   REMARKS
MANISTIQUE     CLEAR     19  12  74 SW6       29.83S WCI  11
ESCANABA       CLOUDY    16  10  77 W10       29.84F WCI   4
MENOMINEE      CLOUDY    18  11  74 SW8       29.89F WCI   8
SAWYER-GWINN   CLOUDY    16  10  79 S7        29.76F WCI   6
$$
MIZ001>003-009>011-084-261000-
WESTERN UPPER MICHIGAN

CITY           SKY/WX    TMP DP  RH WIND       PRES   REMARKS
IRON MOUNTAIN  CLOUDY    20  10  65 SW8       29.78F WCI  10
HOUGHTON       FLURRIES  22  16  78 SW7       29.68F WCI  13
COPPER HARBOR    N/A     23  19  85 VRB6      29.68F WCI  16
IRONWOOD       LGT SNOW  22  18  85 SW10      29.69F FOG     WCI  11
$$

ABBREVIATIONS USED IN REMARKS
   TC - TEMPERATURE IN CELSIUS
  WCI - WIND CHILL INDEX
   HX - HEAT INDEX
  VSB - VISIBILITY




USA.gov is the U.S. government's official web portal to all federal, state and local government web resources and services.